Погода Минеральные Воды

Погода Минеральные Воды : погода сейчас, прогноз погоды и архив. Всё, что Вы хотите узнать о погоде Минеральные Воды!

Поиск расширенной информации на нашем сайте:

Другие новости

Новости СМИ2

Главная страница сайта

Новости сайта

03.07.2017

Напоминаем, что на нашем специализированном сайте Метеоцентр.Азия вы можете получить высокодетализированные автоматические прогнозы погоды по пунктам России, СНГ и мира в авиационном формате (включающие направление и скорость ветра, видимость, явления погоды, количество и форму облачности, нижнюю и верхнюю границу облачности).


Погода Минеральные Воды - сегодня

Время (UTC), дата Ветер
(°,м/с) 
Видим.   Явления Облачность Т
(°С)
Тd
(°С)
f(%) Тe
(°С)
Pmin
(гПа)
dP
(гПа)
Po
(мм)
O2
(г/м3)
Тmin Tmax R s Состояние
почвы
00 19.09.17 250 (З) 10 км    5/5 600 м 
[Sc]
+15.6 +12.3 81 +22  1013.9  0.3  733  277           
03 19.09.17 тихо ()   20000 м    ясно 
+14.1 +12.2 88 +19  1014.6  0.5  733  278  +14.1        очень
сухая
с трещинами 
06 19.09.17 270 (З) 20000 м    ясно 
+25.3 +13.8 49 +33  1013.7  0.5  734  268  +14.1         
09 19.09.17 260 (З) 20000 м    ясно 
+32.6 +12.7 30 +38  1012  -0.9  733  261           
12 19.09.17 270 (З) 20000 м    ясно 
+35 +9.4 21 +36  1010.8  -0.9  732  260           
15 19.09.17 010 (С) 1{10}  20000 м    ясно 
+28.7 +9 29 +29  1012  0.4  733  266    +35.1       
18 19.09.17 180 (Ю) 10 км    ясно 
+21.4 +10.8 51 +24  1014.2  1.3  734  272           
21 19.09.17 тихо ()   10 км    ясно 
+17.9 +11.2 65 +21  1014.5  -0.2  733  275           
00 20.09.17 240 (ЮЗ) 10 км    ясно 
+16.2 +11.6 74 +22  1014.7  733  277           
03 20.09.17 тихо ()   20000 м    ясно 
+14.3 +10.9 80 +17  1015.7  0.7  734  279  +14.3        очень
сухая
с трещинами 
06 20.09.17 210 (ЮЗ) 20000 м    ясно 
+22.8 +11.6 49 +27  1015.1  0.4  734  271  +14.1         
09 20.09.17 070 (В) 20000 м    ясно 
+32.3 +11.1 27 +35  1012.7  -1.2  733  262           
12 20.09.17 060 (СВ) 20000 м    ясно 
+34.5 +9.5 22 +35  1011.6  -0.8  733  261           
15 20.09.17 070 (В) 20000 м    ясно 
+29.2 +9.7 30 +30  1012.3  0.1  733  265    +34.7       
18 20.09.17 060 (СВ) 10 км    ясно 
+21.2 +12.6 58 +27  1013.8  0.5  733  272           
21 20.09.17 тихо ()   10 км    ясно 
+16.9 +11.3 70 +20  1014.1  -0.2  733  276           
00 21.09.17 тихо ()   10 км    ясно 
+14 +10.6 80 +16  1014.5  733  279           
03 21.09.17 тихо ()   20000 м    8/0 средняя 
[Ac trans]
+12.6 +10 84 +14  1014.9  0.2  733  281  +12.5        сухая 
06 21.09.17 050 (СВ) 20000 м    ясно 
+23.1 +11.1 47 +26  1013.5  0.1  733  270           
09 21.09.17 060 (СВ) 20000 м    ясно 
+32.7 +9.1 23 +33  1010.9  -1.4  732  262           
12 21.09.17 040 (СВ) 4{11}  20000 м    ясно 
+32.8 +9.2 23 +33  1009.5  -1.3  731  261           
15 21.09.17 060 (СВ) 20000 м    ясно 
+29 +9.2 29 +30  1009.7  -0.3  731  265    +33.4       
18 21.09.17 050 (СВ) 10 км    ясно 
+22.8 +7.1 36 +23  1011.3  0.8  732  271           
21 21.09.17 060 (СВ) 10 км    ясно 
+21 +10.8 52 +24  1011.3  -0.2  731  272           
00 22.09.17 тихо ()   10 км    ясно 
+17.4 +11.7 69 +21  1011.6  -0.2  731  275           
Время (UTC), дата Ветер
(°,м/с) 
Видим.   Явления Облачность Т
(°С)
Тd
(°С)
f(%) Тe
(°С)
Pmin
(гПа)
dP
(гПа)
Po
(мм)
O2
(г/м3)
Тmin Tmax R s Состояние
почвы

Для получения пояснительной информации подведите курсор к названию столбца.

ПОГОДА Минеральные Воды - архив

Всё, что Вы хотите узнать о погоде Минеральные Воды - удобно и подробно!

Выберите нужную дату (начиная с 1 января 2015* года) и нажмите кнопку "Найти".
Будут отображены архивные сводки погоды по пункту Минеральные Воды, начиная с указанной даты.


Отображать данные в формате CSV (для использования в таблицах Excel)


Внимание! Наш архив погоды предназначен исключительно для личного некоммерческого использования в познавательных целях. Если Вам необходимы официальные справки о состоянии погоды (для производственных, юридических, коммерческих и т.п. целей), обращайтесь в органы Росгидромета.

*Примечание: данная дата относится к архиву по метеостанциям СССР (Россия, СНГ, Балтия).
Архив по метеостанциям Зарубежной Европы и Азии (кроме Китая) хранится 10 дней, по другим регионам земного шара (Китай, Африка, Америка, Австралия, Океания) - 1 день.

Минеральные Воды - район местоположения метеостанции


Название, широта, долгота, высота метеостанции:
Минеральные Воды 44.2°ш. 43.1°д. 316 м над ур. моря [Российская Федерация]

Дополнительная информация

В oтличие oт бoльшинства пoгoдных сайтoв мы публикуем пoдрoбную метеoинфoрмацию в детальнoм прoфессиoнальнoм фoрмате.

Характеристики температуры и влажнoсти вoздуха измеряются на высoте 2 м в тени вдали oт зданий и деревьев.
Скoрoсть ветра измеряется на высoте 10 м (на урoвне рoста челoвека скoрoсть ветра ниже в 1.5-2 раза). Если метеoстанция нахoдится в гoрoде или в лесу, тo скoрoсть ветра занижена на 2-4 м/с пo сравнению с oткрытым местoм. Скoрoсть ветра над акватoриями крупных рек и oзёр, а также на вершинах хoлмoв на 2-5 м/с выше, чем в oбычных услoвиях.
Атмoсфернoе давление в разных тoчках местнoсти мoжет значительнo oтличаться oт давления на метеoстанции, в зависимoсти oт услoвий рельефа (при пoдъёме на 10 м давление пoнижается примернo на 1 мм рт.ст.).